TimeCDT,TemperatureF,Dew PointF,Humidity,Sea Level PressureIn,VisibilityMPH,Wind Direction,Wind SpeedMPH,Gust SpeedMPH,PrecipitationIn,Events,Conditions,WindDirDegrees,DateUTC
12:53 AM,79.0,61.0,54,29.96,10.0,Calm,Calm,-,N/A,,Mostly Cloudy,0,2013-07-02 05:53:00
1:53 AM,78.1,62.1,58,29.95,10.0,WSW,3.5,-,N/A,,Mostly Cloudy,240,2013-07-02 06:53:00
2:53 AM,73.9,63.0,68,29.96,10.0,Calm,Calm,-,N/A,,Scattered Clouds,0,2013-07-02 07:53:00
3:53 AM,75.0,63.0,66,29.96,10.0,Calm,Calm,-,N/A,,Scattered Clouds,0,2013-07-02 08:53:00
4:53 AM,75.0,62.1,64,29.96,10.0,Calm,Calm,-,N/A,,Scattered Clouds,0,2013-07-02 09:53:00
5:53 AM,73.9,63.0,68,29.98,10.0,North,4.6,-,N/A,,Mostly Cloudy,10,2013-07-02 10:53:00
6:53 AM,75.0,63.0,66,29.99,10.0,NE,4.6,-,N/A,,Scattered Clouds,40,2013-07-02 11:53:00
7:53 AM,79.0,63.0,58,30.01,10.0,ENE,5.8,-,N/A,,Scattered Clouds,60,2013-07-02 12:53:00
9:53 AM,86.0,61.0,43,30.01,10.0,East,8.1,-,N/A,,Partly Cloudy,80,2013-07-02 14:53:00
10:53 AM,89.1,61.0,39,30.02,10.0,ENE,8.1,-,N/A,,Partly Cloudy,60,2013-07-02 15:53:00
11:53 AM,90.0,57.0,33,30.01,10.0,NE,5.8,-,N/A,,Scattered Clouds,50,2013-07-02 16:53:00
12:53 PM,90.0,57.0,33,30.00,10.0,NNE,4.6,-,N/A,,Scattered Clouds,20,2013-07-02 17:53:00
1:53 PM,91.0,57.9,33,29.99,10.0,NE,8.1,-,N/A,,Scattered Clouds,40,2013-07-02 18:53:00
2:53 PM,91.9,55.9,30,29.96,10.0,Variable,3.5,-,N/A,,Scattered Clouds,0,2013-07-02 19:53:00
3:53 PM,93.0,57.0,30,29.95,10.0,East,5.8,-,N/A,,Mostly Cloudy,80,2013-07-02 20:53:00
4:53 PM,93.9,59.0,31,29.94,10.0,East,6.9,-,N/A,,Mostly Cloudy,90,2013-07-02 21:53:00
5:53 PM,91.0,57.9,33,29.93,10.0,ESE,5.8,-,N/A,,Mostly Cloudy,110,2013-07-02 22:53:00
6:53 PM,88.0,62.1,42,29.94,10.0,South,10.4,-,N/A,,Scattered Clouds,170,2013-07-02 23:53:00
7:53 PM,86.0,63.0,46,29.96,10.0,South,8.1,-,N/A,,Mostly Cloudy,170,2013-07-03 00:53:00
8:53 PM,84.0,64.0,51,29.97,10.0,South,5.8,-,N/A,,Mostly Cloudy,170,2013-07-03 01:53:00
9:53 PM,82.0,66.0,58,29.98,10.0,South,5.8,-,N/A,,Scattered Clouds,180,2013-07-03 02:53:00
10:53 PM,81.0,66.0,60,30.00,10.0,WSW,8.1,-,N/A,,Mostly Cloudy,240,2013-07-03 03:53:00
11:53 PM,77.0,63.0,62,30.00,10.0,Calm,Calm,-,N/A,,Scattered Clouds,0,2013-07-03 04:53:00